Wetterdaten: Mittwoch, 12.10.2011
Datum Zeit Temp. A. Feuchte A. Luftdruck Regen Wind Richtung Richtung Sonnenschein UV Solar Windben
12.10.2011 00:00 10,7 C 93 % 1016,4 hPa 0,0 mm 1,6 km/h (1 Bft) SW 225 0 min 0 UV-I 0 W/m 4,8 km/h (1 Bft)
12.10.2011 00:10 10,7 C 93 % 1016,3 hPa 0,0 mm 1,6 km/h (1 Bft) SW 225 0 min 0 UV-I 0 W/m 6,4 km/h (2 Bft)
12.10.2011 00:20 10,7 C 93 % 1016,4 hPa 0,3 mm 1,6 km/h (1 Bft) W-SW 247 0 min 0 UV-I 0 W/m 8,0 km/h (2 Bft)
12.10.2011 00:30 10,7 C 93 % 1016,6 hPa 0,0 mm 0,0 km/h (0 Bft) SW 225 0 min 0 UV-I 0 W/m 4,8 km/h (1 Bft)
12.10.2011 00:40 10,7 C 93 % 1016,5 hPa 0,0 mm 1,6 km/h (1 Bft) SW 225 0 min 0 UV-I 0 W/m 6,4 km/h (2 Bft)
12.10.2011 00:50 10,7 C 93 % 1016,4 hPa 0,0 mm 1,6 km/h (1 Bft) SW 225 0 min 0 UV-I 0 W/m 6,4 km/h (2 Bft)
12.10.2011 01:00 10,7 C 93 % 1016,5 hPa 0,0 mm 1,6 km/h (1 Bft) S-SW 202 0 min 0 UV-I 0 W/m 9,7 km/h (2 Bft)
12.10.2011 01:10 10,7 C 93 % 1016,4 hPa 0,0 mm 1,6 km/h (1 Bft) SW 225 0 min 0 UV-I 0 W/m 9,7 km/h (2 Bft)
12.10.2011 01:20 10,7 C 93 % 1016,4 hPa 0,0 mm 1,6 km/h (1 Bft) W-SW 247 0 min 0 UV-I 0 W/m 8,0 km/h (2 Bft)
12.10.2011 01:30 10,7 C 93 % 1016,4 hPa 0,0 mm 3,2 km/h (1 Bft) W-SW 247 0 min 0 UV-I 0 W/m 9,7 km/h (2 Bft)
12.10.2011 01:40 10,7 C 93 % 1016,2 hPa 0,0 mm 3,2 km/h (1 Bft) SW 225 0 min 0 UV-I 0 W/m 9,7 km/h (2 Bft)
12.10.2011 01:50 10,7 C 93 % 1016,5 hPa 0,0 mm 3,2 km/h (1 Bft) W-SW 247 0 min 0 UV-I 0 W/m 9,7 km/h (2 Bft)
12.10.2011 02:00 10,7 C 93 % 1016,3 hPa 0,0 mm 3,2 km/h (1 Bft) S-SW 202 0 min 0 UV-I 0 W/m 9,7 km/h (2 Bft)
12.10.2011 02:10 10,7 C 93 % 1016,2 hPa 0,3 mm 4,8 km/h (1 Bft) W-SW 247 0 min 0 UV-I 0 W/m 17,7 km/h (3 Bft)
12.10.2011 02:20 10,7 C 93 % 1016,4 hPa 0,0 mm 4,8 km/h (1 Bft) W 270 0 min 0 UV-I 0 W/m 14,5 km/h (3 Bft)
12.10.2011 02:30 10,7 C 93 % 1016,3 hPa 0,0 mm 4,8 km/h (1 Bft) W-SW 247 0 min 0 UV-I 0 W/m 16,1 km/h (3 Bft)
12.10.2011 02:40 10,7 C 93 % 1016,2 hPa 0,3 mm 4,8 km/h (1 Bft) SW 225 0 min 0 UV-I 0 W/m 16,1 km/h (3 Bft)
12.10.2011 02:50 10,7 C 93 % 1016,2 hPa 0,0 mm 4,8 km/h (1 Bft) SW 225 0 min 0 UV-I 0 W/m 14,5 km/h (3 Bft)
12.10.2011 03:00 10,7 C 93 % 1016,2 hPa 0,0 mm 6,4 km/h (2 Bft) W-SW 247 0 min 0 UV-I 0 W/m 20,9 km/h (4 Bft)
12.10.2011 03:10 10,7 C 93 % 1016,1 hPa 0,0 mm 4,8 km/h (1 Bft) W-SW 247 0 min 0 UV-I 0 W/m 19,3 km/h (3 Bft)
12.10.2011 03:20 10,7 C 93 % 1016,0 hPa 0,0 mm 4,8 km/h (1 Bft) W-SW 247 0 min 0 UV-I 0 W/m 14,5 km/h (3 Bft)
12.10.2011 03:30 10,7 C 93 % 1016,1 hPa 0,0 mm 4,8 km/h (1 Bft) W-SW 247 0 min 0 UV-I 0 W/m 14,5 km/h (3 Bft)
12.10.2011 03:40 10,7 C 93 % 1016,0 hPa 0,3 mm 3,2 km/h (1 Bft) W-SW 247 0 min 0 UV-I 0 W/m 9,7 km/h (2 Bft)
12.10.2011 03:50 10,7 C 93 % 1016,0 hPa 0,0 mm 3,2 km/h (1 Bft) W-SW 247 0 min 0 UV-I 0 W/m 11,3 km/h (2 Bft)
12.10.2011 04:00 10,7 C 93 % 1016,0 hPa 0,3 mm 3,2 km/h (1 Bft) SW 225 0 min 0 UV-I 0 W/m 14,5 km/h (3 Bft)
12.10.2011 04:10 10,8 C 93 % 1015,9 hPa 0,3 mm 3,2 km/h (1 Bft) W-SW 247 0 min 0 UV-I 0 W/m 11,3 km/h (2 Bft)
12.10.2011 04:20 10,8 C 93 % 1015,8 hPa 0,5 mm 3,2 km/h (1 Bft) W-SW 247 0 min 0 UV-I 0 W/m 14,5 km/h (3 Bft)
12.10.2011 04:30 10,8 C 93 % 1015,6 hPa 0,3 mm 3,2 km/h (1 Bft) SW 225 0 min 0 UV-I 0 W/m 9,7 km/h (2 Bft)
12.10.2011 04:40 10,8 C 93 % 1015,7 hPa 0,3 mm 1,6 km/h (1 Bft) S-SW 202 0 min 0 UV-I 0 W/m 9,7 km/h (2 Bft)
12.10.2011 04:50 10,8 C 94 % 1015,7 hPa 0,3 mm 3,2 km/h (1 Bft) W-SW 247 0 min 0 UV-I 0 W/m 9,7 km/h (2 Bft)
12.10.2011 05:00 10,8 C 94 % 1015,7 hPa 0,3 mm 3,2 km/h (1 Bft) W 270 0 min 0 UV-I 0 W/m 8,0 km/h (2 Bft)
12.10.2011 05:10 10,8 C 94 % 1015,7 hPa 0,3 mm 1,6 km/h (1 Bft) W 270 0 min 0 UV-I 0 W/m 11,3 km/h (2 Bft)
12.10.2011 05:20 10,8 C 94 % 1016,1 hPa 0,5 mm 3,2 km/h (1 Bft) NW 315 0 min 0 UV-I 0 W/m 14,5 km/h (3 Bft)
12.10.2011 05:30 10,8 C 93 % 1016,3 hPa 0,5 mm 4,8 km/h (1 Bft) W-NW 292 0 min 0 UV-I 0 W/m 16,1 km/h (3 Bft)
12.10.2011 05:40 10,5 C 93 % 1016,5 hPa 0,3 mm 1,6 km/h (1 Bft) NW 315 0 min 0 UV-I 0 W/m 8,0 km/h (2 Bft)
12.10.2011 05:50 10,3 C 93 % 1016,5 hPa 0,5 mm 1,6 km/h (1 Bft) N 360 0 min 0 UV-I 0 W/m 8,0 km/h (2 Bft)
12.10.2011 06:00 10,1 C 93 % 1016,5 hPa 0,8 mm 1,6 km/h (1 Bft) NW 315 0 min 0 UV-I 0 W/m 11,3 km/h (2 Bft)
12.10.2011 06:10 10,0 C 93 % 1016,5 hPa 0,5 mm 0,0 km/h (0 Bft) NW 315 0 min 0 UV-I 0 W/m 3,2 km/h (1 Bft)
12.10.2011 06:20 9,9 C 93 % 1016,6 hPa 0,3 mm 0,0 km/h (0 Bft) NW 315 0 min 0 UV-I 0 W/m 3,2 km/h (1 Bft)
12.10.2011 06:30 9,8 C 93 % 1016,6 hPa 0,5 mm 0,0 km/h (0 Bft) NW 315 0 min 0 UV-I 0 W/m 3,2 km/h (1 Bft)
12.10.2011 06:40 9,8 C 93 % 1016,6 hPa 0,0 mm 0,0 km/h (0 Bft) NW 315 0 min 0 UV-I 0 W/m 1,6 km/h (1 Bft)
12.10.2011 06:50 9,7 C 93 % 1016,7 hPa 0,5 mm 0,0 km/h (0 Bft) NW 315 0 min 0 UV-I 0 W/m 4,8 km/h (1 Bft)
12.10.2011 07:00 9,7 C 93 % 1016,6 hPa 0,3 mm 0,0 km/h (0 Bft) W 270 0 min 0 UV-I 0 W/m 4,8 km/h (1 Bft)
12.10.2011 07:10 9,7 C 93 % 1016,7 hPa 0,3 mm 0,0 km/h (0 Bft) W 270 0 min 0 UV-I 0 W/m 3,2 km/h (1 Bft)
12.10.2011 07:20 9,7 C 93 % 1016,8 hPa 0,3 mm 0,0 km/h (0 Bft) W 270 0 min 0 UV-I 0 W/m 4,8 km/h (1 Bft)
12.10.2011 07:30 9,7 C 93 % 1016,7 hPa 0,3 mm 1,6 km/h (1 Bft) W 270 0 min 0 UV-I 0 W/m 4,8 km/h (1 Bft)
12.10.2011 07:40 9,7 C 93 % 1016,8 hPa 0,3 mm 0,0 km/h (0 Bft) W 270 0 min 0 UV-I 0 W/m 1,6 km/h (1 Bft)
12.10.2011 07:50 9,7 C 93 % 1016,9 hPa 0,3 mm 0,0 km/h (0 Bft) W 270 0 min 0 UV-I 0 W/m 8,0 km/h (2 Bft)
12.10.2011 08:00 9,7 C 93 % 1016,9 hPa 0,3 mm 1,6 km/h (1 Bft) W-SW 255 0 min 0 UV-I 0 W/m 6,4 km/h (2 Bft)
12.10.2011 08:10 9,7 C 93 % 1017,1 hPa 0,3 mm 1,6 km/h (1 Bft) W-SW 247 0 min 0 UV-I 0 W/m 6,4 km/h (2 Bft)
12.10.2011 08:20 9,7 C 93 % 1017,3 hPa 0,3 mm 1,6 km/h (1 Bft) W-SW 247 0 min 0 UV-I 5 W/m 4,8 km/h (1 Bft)
12.10.2011 08:30 9,7 C 93 % 1017,4 hPa 0,0 mm 0,0 km/h (0 Bft) W 270 0 min 0 UV-I 9 W/m 6,4 km/h (2 Bft)
12.10.2011 08:40 9,7 C 93 % 1017,4 hPa 0,3 mm 0,0 km/h (0 Bft) W 270 0 min 0 UV-I 18 W/m 4,8 km/h (1 Bft)
12.10.2011 08:50 9,7 C 93 % 1017,6 hPa 0,0 mm 1,6 km/h (1 Bft) W 270 0 min 0 UV-I 21 W/m 6,4 km/h (2 Bft)
12.10.2011 09:00 9,7 C 93 % 1017,8 hPa 0,3 mm 1,6 km/h (1 Bft) W-SW 247 0 min 0 UV-I 23 W/m 4,8 km/h (1 Bft)
12.10.2011 09:10 9,7 C 93 % 1017,8 hPa 0,0 mm 1,6 km/h (1 Bft) W-SW 247 0 min 0 UV-I 21 W/m 8,0 km/h (2 Bft)
12.10.2011 09:20 9,7 C 93 % 1017,8 hPa 0,3 mm 1,6 km/h (1 Bft) W 270 0 min 0 UV-I 26 W/m 8,0 km/h (2 Bft)
12.10.2011 09:30 9,7 C 93 % 1018,2 hPa 0,0 mm 3,2 km/h (1 Bft) W-SW 247 0 min 0 UV-I 28 W/m 9,7 km/h (2 Bft)
12.10.2011 09:40 9,7 C 93 % 1018,2 hPa 0,3 mm 1,6 km/h (1 Bft) W-SW 247 0 min 0 UV-I 33 W/m 8,0 km/h (2 Bft)
12.10.2011 09:50 9,7 C 93 % 1018,3 hPa 0,3 mm 1,6 km/h (1 Bft) W-SW 247 0 min 0 UV-I 47 W/m 6,4 km/h (2 Bft)
12.10.2011 10:00 9,7 C 93 % 1018,3 hPa 0,0 mm 1,6 km/h (1 Bft) W-SW 247 0 min 0 UV-I 37 W/m 6,4 km/h (2 Bft)
12.10.2011 10:10 9,7 C 93 % 1018,4 hPa 0,0 mm 1,6 km/h (1 Bft) W-SW 247 0 min 1 UV-I 123 W/m 4,8 km/h (1 Bft)
12.10.2011 10:20 9,8 C 94 % 1018,3 hPa 0,3 mm 1,6 km/h (1 Bft) W-SW 247 0 min 1 UV-I 141 W/m 6,4 km/h (2 Bft)
12.10.2011 10:30 10,0 C 94 % 1018,4 hPa 0,0 mm 1,6 km/h (1 Bft) SW 225 0 min 1 UV-I 132 W/m 6,4 km/h (2 Bft)
12.10.2011 10:40 10,1 C 94 % 1018,5 hPa 0,0 mm 3,2 km/h (1 Bft) SW 225 0 min 1 UV-I 98 W/m 9,7 km/h (2 Bft)
12.10.2011 10:50 10,1 C 94 % 1018,5 hPa 0,0 mm 3,2 km/h (1 Bft) W 270 0 min 1 UV-I 100 W/m 9,7 km/h (2 Bft)
12.10.2011 11:00 10,1 C 94 % 1018,5 hPa 0,0 mm 1,6 km/h (1 Bft) SW 225 0 min 1 UV-I 179 W/m 8,0 km/h (2 Bft)
12.10.2011 11:10 10,1 C 94 % 1018,6 hPa 0,0 mm 1,6 km/h (1 Bft) SW 225 0 min 1 UV-I 156 W/m 6,4 km/h (2 Bft)
12.10.2011 11:20 10,2 C 94 % 1018,5 hPa 0,0 mm 3,2 km/h (1 Bft) W-SW 247 0 min 1 UV-I 178 W/m 9,7 km/h (2 Bft)
12.10.2011 11:30 10,3 C 94 % 1018,5 hPa 0,0 mm 1,6 km/h (1 Bft) W-SW 247 0 min 1 UV-I 109 W/m 9,7 km/h (2 Bft)
12.10.2011 11:40 10,3 C 94 % 1018,5 hPa 0,0 mm 1,6 km/h (1 Bft) W-SW 247 0 min 1 UV-I 121 W/m 8,0 km/h (2 Bft)
12.10.2011 11:50 10,2 C 94 % 1018,6 hPa 0,3 mm 1,6 km/h (1 Bft) W-SW 247 0 min 1 UV-I 135 W/m 6,4 km/h (2 Bft)
12.10.2011 12:00 10,2 C 94 % 1018,6 hPa 0,0 mm 1,6 km/h (1 Bft) W-SW 247 0 min 1 UV-I 114 W/m 6,4 km/h (2 Bft)
12.10.2011 12:10 10,2 C 94 % 1018,6 hPa 0,0 mm 1,6 km/h (1 Bft) W-SW 247 0 min 1 UV-I 158 W/m 8,0 km/h (2 Bft)
12.10.2011 12:20 10,2 C 94 % 1018,7 hPa 0,0 mm 1,6 km/h (1 Bft) W-SW 247 0 min 1 UV-I 185 W/m 4,8 km/h (1 Bft)
12.10.2011 12:30 10,3 C 94 % 1018,6 hPa 0,0 mm 0,0 km/h (0 Bft) S-SW 202 0 min 1 UV-I 183 W/m 3,2 km/h (1 Bft)
12.10.2011 12:40 10,4 C 94 % 1018,8 hPa 0,0 mm 1,6 km/h (1 Bft) SW 225 0 min 1 UV-I 127 W/m 6,4 km/h (2 Bft)
12.10.2011 12:50 10,6 C 94 % 1018,7 hPa 0,0 mm 0,0 km/h (0 Bft) SW 225 0 min 1 UV-I 121 W/m 4,8 km/h (1 Bft)
12.10.2011 13:00 10,6 C 94 % 1018,7 hPa 0,0 mm 1,6 km/h (1 Bft) W-SW 247 0 min 1 UV-I 149 W/m 8,0 km/h (2 Bft)
12.10.2011 13:10 10,6 C 94 % 1018,8 hPa 0,0 mm 1,6 km/h (1 Bft) W-SW 247 0 min 1 UV-I 167 W/m 8,0 km/h (2 Bft)
12.10.2011 13:20 10,6 C 94 % 1018,8 hPa 0,0 mm 1,6 km/h (1 Bft) W 270 0 min 1 UV-I 169 W/m 6,4 km/h (2 Bft)
12.10.2011 13:30 10,6 C 94 % 1018,7 hPa 0,0 mm 1,6 km/h (1 Bft) W-SW 247 0 min 1 UV-I 142 W/m 9,7 km/h (2 Bft)
12.10.2011 13:40 10,6 C 94 % 1018,6 hPa 0,0 mm 0,0 km/h (0 Bft) W-SW 247 0 min 1 UV-I 141 W/m 4,8 km/h (1 Bft)
12.10.2011 13:50 10,6 C 94 % 1018,6 hPa 0,3 mm 1,6 km/h (1 Bft) W-SW 247 0 min 1 UV-I 142 W/m 8,0 km/h (2 Bft)
12.10.2011 14:00 10,7 C 94 % 1018,6 hPa 0,0 mm 1,6 km/h (1 Bft) W-SW 247 0 min 1 UV-I 139 W/m 8,0 km/h (2 Bft)
12.10.2011 14:10 10,7 C 94 % 1018,6 hPa 0,0 mm 3,2 km/h (1 Bft) W-SW 247 0 min 1 UV-I 146 W/m 11,3 km/h (2 Bft)
12.10.2011 14:20 10,6 C 94 % 1018,5 hPa 0,3 mm 1,6 km/h (1 Bft) W-SW 247 0 min 1 UV-I 169 W/m 6,4 km/h (2 Bft)
12.10.2011 14:30 10,6 C 94 % 1018,5 hPa 0,0 mm 1,6 km/h (1 Bft) W-SW 247 0 min 1 UV-I 167 W/m 8,0 km/h (2 Bft)
12.10.2011 14:40 10,6 C 94 % 1018,5 hPa 0,0 mm 1,6 km/h (1 Bft) W-SW 247 0 min 1 UV-I 128 W/m 8,0 km/h (2 Bft)
12.10.2011 14:50 10,6 C 94 % 1018,4 hPa 0,0 mm 1,6 km/h (1 Bft) W 270 0 min 1 UV-I 132 W/m 8,0 km/h (2 Bft)
12.10.2011 15:00 10,6 C 94 % 1018,5 hPa 0,0 mm 1,6 km/h (1 Bft) W 270 0 min 1 UV-I 153 W/m 8,0 km/h (2 Bft)
12.10.2011 15:10 10,6 C 94 % 1018,5 hPa 0,0 mm 1,6 km/h (1 Bft) W-SW 247 0 min 1 UV-I 155 W/m 9,7 km/h (2 Bft)
12.10.2011 15:20 10,6 C 94 % 1018,5 hPa 0,0 mm 1,6 km/h (1 Bft) W-SW 247 0 min 1 UV-I 142 W/m 8,0 km/h (2 Bft)
12.10.2011 15:30 10,6 C 94 % 1018,6 hPa 0,0 mm 1,6 km/h (1 Bft) SW 225 0 min 1 UV-I 142 W/m 6,4 km/h (2 Bft)
12.10.2011 15:40 10,7 C 94 % 1018,6 hPa 0,0 mm 1,6 km/h (1 Bft) W-SW 247 0 min 1 UV-I 156 W/m 8,0 km/h (2 Bft)
12.10.2011 15:50 10,7 C 94 % 1018,6 hPa 0,0 mm 1,6 km/h (1 Bft) W-SW 247 0 min 1 UV-I 141 W/m 8,0 km/h (2 Bft)
12.10.2011 16:00 10,7 C 94 % 1018,7 hPa 0,0 mm 0,0 km/h (0 Bft) W-SW 247 0 min 1 UV-I 74 W/m 6,4 km/h (2 Bft)
12.10.2011 16:10 10,7 C 93 % 1018,7 hPa 0,3 mm 1,6 km/h (1 Bft) W-SW 247 0 min 1 UV-I 91 W/m 6,4 km/h (2 Bft)
12.10.2011 16:20 10,7 C 93 % 1018,7 hPa 0,0 mm 1,6 km/h (1 Bft) W-SW 247 0 min 1 UV-I 91 W/m 4,8 km/h (1 Bft)
12.10.2011 16:30 10,7 C 93 % 1018,8 hPa 0,0 mm 1,6 km/h (1 Bft) W-SW 247 0 min 0 UV-I 53 W/m 6,4 km/h (2 Bft)
12.10.2011 16:40 10,6 C 93 % 1018,8 hPa 0,0 mm 1,6 km/h (1 Bft) W-SW 247 0 min 0 UV-I 33 W/m 8,0 km/h (2 Bft)
12.10.2011 16:50 10,6 C 93 % 1018,7 hPa 0,3 mm 0,0 km/h (0 Bft) W-SW 247 0 min 0 UV-I 32 W/m 3,2 km/h (1 Bft)
12.10.2011 17:00 10,6 C 93 % 1018,6 hPa 0,0 mm 0,0 km/h (0 Bft) W-SW 247 0 min 0 UV-I 40 W/m 3,2 km/h (1 Bft)
12.10.2011 17:10 10,6 C 93 % 1018,7 hPa 0,0 mm 0,0 km/h (0 Bft) W-SW 247 0 min 0 UV-I 53 W/m 6,4 km/h (2 Bft)
12.10.2011 17:20 10,6 C 93 % 1018,8 hPa 0,3 mm 0,0 km/h (0 Bft) W-SW 247 0 min 0 UV-I 42 W/m 6,4 km/h (2 Bft)
12.10.2011 17:30 10,5 C 93 % 1018,9 hPa 0,0 mm 0,0 km/h (0 Bft) W-SW 247 0 min 0 UV-I 26 W/m 3,2 km/h (1 Bft)
12.10.2011 17:40 10,4 C 93 % 1019,0 hPa 0,3 mm 0,0 km/h (0 Bft) W-SW 247 0 min 0 UV-I 19 W/m 3,2 km/h (1 Bft)
12.10.2011 17:50 10,3 C 93 % 1019,0 hPa 0,0 mm 0,0 km/h (0 Bft) W-SW 247 0 min 0 UV-I 18 W/m 4,8 km/h (1 Bft)
12.10.2011 18:00 10,3 C 93 % 1018,9 hPa 0,3 mm 0,0 km/h (0 Bft) W-SW 247 0 min 0 UV-I 12 W/m 4,8 km/h (1 Bft)
12.10.2011 18:10 10,3 C 93 % 1019,1 hPa 0,0 mm 0,0 km/h (0 Bft) W-SW 247 0 min 0 UV-I 12 W/m 4,8 km/h (1 Bft)
12.10.2011 18:20 10,3 C 93 % 1019,1 hPa 0,3 mm 0,0 km/h (0 Bft) W-SW 247 0 min 0 UV-I 5 W/m 3,2 km/h (1 Bft)
12.10.2011 18:30 10,2 C 93 % 1019,1 hPa 0,0 mm 0,0 km/h (0 Bft) W-SW 247 0 min 0 UV-I 0 W/m 4,8 km/h (1 Bft)
12.10.2011 18:40 10,2 C 93 % 1019,2 hPa 0,0 mm 0,0 km/h (0 Bft) W-SW 247 0 min 0 UV-I 0 W/m 4,8 km/h (1 Bft)
12.10.2011 18:50 10,1 C 93 % 1019,3 hPa 0,0 mm 0,0 km/h (0 Bft) W-SW 247 0 min 0 UV-I 0 W/m 6,4 km/h (2 Bft)
12.10.2011 19:00 10,0 C 93 % 1019,4 hPa 0,3 mm 1,6 km/h (1 Bft) W-SW 247 0 min 0 UV-I 0 W/m 6,4 km/h (2 Bft)
12.10.2011 19:10 9,9 C 93 % 1019,5 hPa 0,0 mm 0,0 km/h (0 Bft) W-SW 247 0 min 0 UV-I 0 W/m 1,6 km/h (1 Bft)
12.10.2011 19:20 9,8 C 93 % 1019,6 hPa 0,3 mm 0,0 km/h (0 Bft) W-SW 247 0 min 0 UV-I 0 W/m 4,8 km/h (1 Bft)
12.10.2011 19:30 9,8 C 93 % 1019,8 hPa 0,0 mm 0,0 km/h (0 Bft) W-SW 247 0 min 0 UV-I 0 W/m 4,8 km/h (1 Bft)
12.10.2011 19:40 9,7 C 93 % 1019,9 hPa 0,0 mm 0,0 km/h (0 Bft) W-SW 247 0 min 0 UV-I 0 W/m 3,2 km/h (1 Bft)
12.10.2011 19:50 9,7 C 93 % 1020,1 hPa 0,3 mm 1,6 km/h (1 Bft) W-SW 247 0 min 0 UV-I 0 W/m 4,8 km/h (1 Bft)
12.10.2011 20:00 9,6 C 93 % 1020,1 hPa 0,0 mm 1,6 km/h (1 Bft) W-SW 247 0 min 0 UV-I 0 W/m 4,8 km/h (1 Bft)
12.10.2011 20:10 9,6 C 93 % 1020,2 hPa 0,0 mm 0,0 km/h (0 Bft) W-SW 247 0 min 0 UV-I 0 W/m 4,8 km/h (1 Bft)
12.10.2011 20:20 9,6 C 93 % 1020,2 hPa 0,0 mm 0,0 km/h (0 Bft) W-SW 247 0 min 0 UV-I 0 W/m 3,2 km/h (1 Bft)
12.10.2011 20:30 9,6 C 93 % 1020,5 hPa 0,0 mm 0,0 km/h (0 Bft) W-SW 247 0 min 0 UV-I 0 W/m 3,2 km/h (1 Bft)
12.10.2011 20:40 9,6 C 93 % 1020,4 hPa 0,0 mm 0,0 km/h (0 Bft) W-SW 247 0 min 0 UV-I 0 W/m 3,2 km/h (1 Bft)
12.10.2011 20:50 9,5 C 93 % 1020,4 hPa 0,3 mm 0,0 km/h (0 Bft) W-SW 247 0 min 0 UV-I 0 W/m 1,6 km/h (1 Bft)
12.10.2011 21:00 9,4 C 93 % 1020,6 hPa 0,0 mm 0,0 km/h (0 Bft) W-SW 247 0 min 0 UV-I 0 W/m 1,6 km/h (1 Bft)
12.10.2011 21:10 9,4 C 93 % 1020,8 hPa 0,0 mm 1,6 km/h (1 Bft) W-SW 247 0 min 0 UV-I 0 W/m 4,8 km/h (1 Bft)
12.10.2011 21:20 9,4 C 93 % 1020,9 hPa 0,0 mm 0,0 km/h (0 Bft) W-SW 247 0 min 0 UV-I 0 W/m 3,2 km/h (1 Bft)
12.10.2011 21:30 9,4 C 93 % 1020,9 hPa 0,0 mm 0,0 km/h (0 Bft) W-SW 247 0 min 0 UV-I 0 W/m 3,2 km/h (1 Bft)
12.10.2011 21:40 9,4 C 93 % 1021,1 hPa 0,0 mm 0,0 km/h (0 Bft) W-SW 247 0 min 0 UV-I 0 W/m 1,6 km/h (1 Bft)
12.10.2011 21:50 9,4 C 93 % 1021,1 hPa 0,0 mm 0,0 km/h (0 Bft) W-SW 247 0 min 0 UV-I 0 W/m 4,8 km/h (1 Bft)
12.10.2011 22:00 9,4 C 93 % 1021,2 hPa 0,0 mm 0,0 km/h (0 Bft) W-SW 247 0 min 0 UV-I 0 W/m 1,6 km/h (1 Bft)
12.10.2011 22:10 9,3 C 93 % 1021,2 hPa 0,0 mm 0,0 km/h (0 Bft) W-SW 247 0 min 0 UV-I 0 W/m 1,6 km/h (1 Bft)
12.10.2011 22:20 9,3 C 93 % 1021,3 hPa 0,0 mm 0,0 km/h (0 Bft) W-SW 248 0 min 0 UV-I 0 W/m 0,0 km/h (0 Bft)
12.10.2011 22:30 9,3 C 93 % 1021,5 hPa 0,0 mm 0,0 km/h (0 Bft) W-SW 248 0 min 0 UV-I 0 W/m 0,0 km/h (0 Bft)
12.10.2011 22:40 9,3 C 93 % 1021,5 hPa 0,0 mm 0,0 km/h (0 Bft) W-SW 248 0 min 0 UV-I 0 W/m 1,6 km/h (1 Bft)
12.10.2011 22:50 9,3 C 93 % 1021,7 hPa 0,0 mm 0,1 km/h (0 Bft) W-SW 248 0 min 0 UV-I 0 W/m 3,2 km/h (1 Bft)
12.10.2011 23:00 9,3 C 93 % 1021,8 hPa 0,0 mm 0,0 km/h (0 Bft) W-SW 248 0 min 0 UV-I 0 W/m 1,6 km/h (1 Bft)
12.10.2011 23:10 9,3 C 93 % 1021,9 hPa 0,0 mm 0,0 km/h (0 Bft) W-SW 247 0 min 0 UV-I 0 W/m 1,6 km/h (1 Bft)
12.10.2011 23:20 9,2 C 93 % 1021,9 hPa 0,0 mm 0,0 km/h (0 Bft) W-SW 247 0 min 0 UV-I 0 W/m 3,2 km/h (1 Bft)
12.10.2011 23:30 9,2 C 93 % 1022,0 hPa 0,0 mm 0,0 km/h (0 Bft) W-SW 247 0 min 0 UV-I 0 W/m 1,6 km/h (1 Bft)
12.10.2011 23:40 9,2 C 93 % 1022,0 hPa 0,0 mm 0,0 km/h (0 Bft) W-SW 247 0 min 0 UV-I 0 W/m 3,2 km/h (1 Bft)
12.10.2011 23:50 9,2 C 93 % 1022,0 hPa 0,0 mm 0,0 km/h (0 Bft) W-SW 247 0 min 0 UV-I 0 W/m 3,2 km/h (1 Bft)
_ Min-Zeit 23:10 00:00 04:30 - 00:30 - - - - - 22:20
Minimum _ 9,2 C 93 % 1015,6 hPa - 0,0 km/h (0 Bft) - - - - - 0,0 km/h (0 Bft)
_ Max-Zeit 05:20 04:50 23:30 06:00 03:00 - - 00:00 12:20 12:20 03:00
Maximum _ 10,9 C 94 % 1022,0 hPa 0,8 mm 6,4 km/h
W-SW (2 Bft)
- - 0 min 1 UV-I 185 W/m 20,9 km/h
W (4 Bft)
Durchschnitt _ 10,2 C 93 % 1018,3 hPa #14,7 mm 1,4 km/h (1 Bft) W-SW - #0 min. 1 UV-I 97 W/m 6,9 km/h (2 Bft)